TimeCST,TemperatureF,Dew PointF,Humidity,Sea Level PressureIn,VisibilityMPH,Wind Direction,Wind SpeedMPH,Gust SpeedMPH,PrecipitationIn,Events,Conditions,WindDirDegrees,DateUTC
12:53 AM,34.0,-9999,N/A,29.97,8.0,Calm,Calm,-,0.01,,Overcast,0,2013-02-13 06:53:00
1:53 AM,34.0,-9999,N/A,29.96,10.0,Calm,Calm,-,0.00,,Overcast,0,2013-02-13 07:53:00
2:53 AM,33.1,-9999,N/A,29.96,8.0,NW,5.8,-,N/A,,Overcast,320,2013-02-13 08:53:00
3:01 AM,33.8,-9999,N/A,29.94,7.0,NNW,3.5,-,N/A,,Overcast,330,2013-02-13 09:01:00
3:53 AM,33.1,-9999,N/A,29.97,10.0,NNW,5.8,-,N/A,,Overcast,330,2013-02-13 09:53:00
4:53 AM,33.1,33.1,100,29.98,10.0,NW,9.2,-,N/A,,Overcast,320,2013-02-13 10:53:00
5:13 AM,33.8,33.8,100,29.97,9.0,NNW,8.1,-,N/A,,Overcast,330,2013-02-13 11:13:00
5:53 AM,33.1,33.1,100,29.99,8.0,Calm,Calm,-,N/A,,Overcast,0,2013-02-13 11:53:00
6:53 AM,33.1,33.1,100,30.02,5.0,West,3.5,-,N/A,,Overcast,270,2013-02-13 12:53:00
7:18 AM,33.8,33.8,100,30.01,4.0,WNW,4.6,-,N/A,,Overcast,290,2013-02-13 13:18:00
7:53 AM,33.1,33.1,100,30.04,4.0,West,4.6,-,N/A,,Overcast,280,2013-02-13 13:53:00
8:53 AM,35.1,35.1,100,30.05,10.0,West,5.8,-,N/A,,Overcast,260,2013-02-13 14:53:00
9:53 AM,37.0,35.1,93,30.05,10.0,SW,6.9,-,N/A,,Scattered Clouds,230,2013-02-13 15:53:00
10:53 AM,42.1,36.0,79,30.03,10.0,SSW,11.5,-,N/A,,Scattered Clouds,210,2013-02-13 16:53:00
11:50 AM,44.6,35.6,71,30.01,10.0,SW,10.4,-,0.01,,Mostly Cloudy,230,2013-02-13 17:50:00
11:53 AM,45.0,36.0,71,30.02,10.0,SW,11.5,-,0.01,,Mostly Cloudy,230,2013-02-13 17:53:00
12:53 PM,46.0,35.1,66,30.00,10.0,WSW,11.5,-,N/A,,Scattered Clouds,250,2013-02-13 18:53:00
1:53 PM,46.9,34.0,61,29.98,10.0,WSW,9.2,19.6,N/A,,Clear,240,2013-02-13 19:53:00
2:53 PM,50.0,33.1,52,29.96,10.0,WSW,13.8,17.3,N/A,,Clear,250,2013-02-13 20:53:00
3:53 PM,50.0,30.9,48,29.96,10.0,West,9.2,-,N/A,,Clear,260,2013-02-13 21:53:00
4:53 PM,48.9,30.0,48,29.96,10.0,West,8.1,-,N/A,,Clear,260,2013-02-13 22:53:00
5:53 PM,45.0,30.0,56,29.96,10.0,WSW,5.8,-,N/A,,Clear,240,2013-02-13 23:53:00
6:53 PM,42.1,30.0,62,29.97,10.0,WSW,6.9,-,N/A,,Clear,240,2013-02-14 00:53:00
7:53 PM,36.0,30.9,82,29.98,10.0,South,6.9,-,N/A,,Clear,190,2013-02-14 01:53:00
8:53 PM,34.0,30.0,85,29.99,10.0,SSW,5.8,-,N/A,,Clear,200,2013-02-14 02:53:00
9:53 PM,34.0,30.0,85,29.99,10.0,SSW,5.8,-,N/A,,Clear,200,2013-02-14 03:53:00
10:53 PM,32.0,30.0,92,30.00,10.0,SSW,8.1,-,N/A,,Clear,200,2013-02-14 04:53:00
11:53 PM,32.0,28.9,88,29.99,10.0,SSW,6.9,-,N/A,,Clear,200,2013-02-14 05:53:00